User: anonymous
Location: Tyler Bend Campground
(35.9875°N, 92.7606°W)
Time: 08:35:52
(UTC-05:00)
Language:

Iridium 39 - Orbit

View from above orbital plane
View from above orbital plane
View from above satellite
View from above satellite

Ground track
Ground track

The orbit data is extracted from the following two-line orbital elements,

1 25042U 97069D   14107.17066985  .00000215  00000-0  69861-4 0  7742
2 25042 086.3961 145.7876 0002499 114.8816 245.2640 14.34221951860479
Epoch (UTC): 17 April 2014 04:05:45
Eccentricity: 0.0002499
inclination: 86.3961°
perigee height: 776 km
apogee height: 779 km
right ascension of ascending node: 145.7876°
argument of perigee: 114.8816°
revolutions per day: 14.34221951
mean anomaly at epoch: 245.2640°
orbit number at epoch: 86047

The dashed part of the orbit path shows where the satellite is in the earth's shadow,  

DLR